Location: Martley
(52.2333°N, 2.3667°W)
Time: 04:19:27
(UTC+00:00)

Cosmos 2082 Rocket - Pass Details

Date: 11 December 2019
Orbit: 834 x 852 km, 71.0° (Epoch: 17 January)

Event Time Altitude Azimuth Distance (km) Brightness Sun altitude
Exits shadow 07:18:07 - 331° (NNW) 3,057 4.6 -7.2°
Reaches altitude 10° 07:19:42 10° 335° (NNW) 2,471 4.2 -7.0°
Maximum altitude 07:25:14 52° 52° (NE) 1,039 2.9 -6.3°
Drops below altitude 10° 07:30:42 10° 128° (SE) 2,447 6.4 -5.6°
Sets 07:33:12 0° 134° (SE) 3,376 7.4 -5.2°
